TUR1 LTAC-EDDH

Flight info

Callsign TUR1
Flight time 1h 36m
Altitude 38000
Route DEREL UL602 MAKOL DCT ORTIP DCT DEGET DCT MAVOR DCT KATQA DCT ODLIV DCT HDO DCT SOGMA M748 RARUP RARUP3P
Aircraft A319/M-SDE3FGHIRWY/LB1

Departure

Time 2026-04-23 19:00
Airport Esenboğa International Airport (LTAC)

Arrival

Time 2026-04-23 20:36
Airport Hamburg Helmut Schmidt Airport (EDDH)
Time Latitude Longitude Altitude Speed Heading
2026-04-23 18:05 40.12561 33.00119 3125 ft 0 kts 167°
2026-04-23 18:07 40.12319 33.00213 3132 ft 0 kts 218°
2026-04-23 18:42 40.12328 33.00222 3131 ft 4 kts 224°
2026-04-23 18:42 40.12342 33.00249 3132 ft 4 kts 256°
2026-04-23 18:43 40.12343 33.00283 3133 ft 3 kts 282°
2026-04-23 18:43 40.12342 33.00293 3133 ft 0 kts 282°
2026-04-23 18:45 40.12351 33.00282 3133 ft 6 kts 337°
2026-04-23 18:45 40.12354 33.00282 3133 ft 0 kts 350°
2026-04-23 18:46 40.12392 33.00272 3132 ft 21 kts 348°
2026-04-23 18:47 40.12586 33.00190 3129 ft 18 kts 296°
2026-04-23 18:47 40.12589 32.99970 3123 ft 32 kts 271°
2026-04-23 18:47 40.12595 32.99816 3121 ft 0 kts 272°
2026-04-23 18:48 40.12636 32.99787 3122 ft 15 kts
2026-04-23 18:48 40.12762 32.99918 3125 ft 36 kts 35°
2026-04-23 18:48 40.12899 33.00047 3128 ft 15 kts 36°
2026-04-23 18:49 40.12976 33.00119 3131 ft 16 kts 36°
2026-04-23 18:49 40.13098 33.00236 3134 ft 28 kts 36°
2026-04-23 18:49 40.13265 33.00394 3139 ft 12 kts 36°
2026-04-23 18:49 40.13338 33.00463 3142 ft 16 kts 36°
2026-04-23 18:50 40.13405 33.00527 3143 ft 20 kts 36°
2026-04-23 18:50 40.13555 33.00668 3147 ft 0 kts 36°
2026-04-23 18:51 40.13560 33.00672 3147 ft 3 kts 36°
2026-04-23 18:51 40.13569 33.00681 3148 ft 5 kts 36°
2026-04-23 18:52 40.13602 33.00713 3148 ft 9 kts 36°
2026-04-23 18:52 40.13664 33.00773 3150 ft 17 kts 37°
2026-04-23 18:52 40.13799 33.00909 3153 ft 34 kts 38°
2026-04-23 18:53 40.13923 33.01030 3158 ft 0 kts 36°
2026-04-23 18:53 40.13924 33.01031 3159 ft 1 kts 36°
2026-04-23 18:54 40.13953 33.01052 3158 ft 9 kts 31°
2026-04-23 18:54 40.14039 33.01066 3159 ft 17 kts 335°
2026-04-23 18:54 40.14089 33.01029 3160 ft 0 kts 308°
2026-04-23 18:55 40.14090 33.01026 3160 ft 3 kts 308°
2026-04-23 18:56 40.14093 33.01021 3160 ft 0 kts 305°
2026-04-23 18:57 40.14112 33.00961 3163 ft 21 kts 291°
2026-04-23 18:57 40.14221 33.00736 3159 ft 33 kts 308°
2026-04-23 18:58 40.14201 33.00672 3156 ft 7 kts 220°
2026-04-23 18:58 40.14186 33.00657 3156 ft 0 kts 217°
2026-04-23 18:59 40.14010 33.00493 3151 ft 68 kts 216°
2026-04-23 18:59 40.13423 32.99932 3134 ft 145 kts 216°
2026-04-23 18:59 40.12441 32.99011 3394 ft 185 kts 215°
2026-04-23 19:00 40.11340 32.98012 3885 ft 203 kts 217°
2026-04-23 19:00 40.10166 32.96901 4110 ft 215 kts 218°
2026-04-23 19:00 40.08884 32.95676 4578 ft 238 kts 218°
2026-04-23 19:00 40.07529 32.94389 5534 ft 244 kts 218°
2026-04-23 19:01 40.06139 32.93069 6507 ft 250 kts 218°
2026-04-23 19:01 40.04722 32.91725 7494 ft 254 kts 218°
2026-04-23 19:01 40.03305 32.90339 8520 ft 255 kts 224°
2026-04-23 19:01 40.02323 32.88441 9480 ft 254 kts 253°
2026-04-23 19:02 40.02161 32.86154 10233 ft 263 kts 279°
2026-04-23 19:02 40.02943 32.83892 10578 ft 290 kts 304°
2026-04-23 19:02 40.04203 32.81702 10881 ft 313 kts 306°
2026-04-23 19:02 40.05546 32.79404 11527 ft 322 kts 306°
2026-04-23 19:03 40.06910 32.77066 12343 ft 325 kts 304°
2026-04-23 19:03 40.08281 32.74698 13159 ft 328 kts 304°
2026-04-23 19:03 40.09658 32.72305 13938 ft 331 kts 303°
2026-04-23 19:03 40.11039 32.69887 14639 ft 333 kts 302°
2026-04-23 19:04 40.12424 32.67449 15345 ft 336 kts 301°
2026-04-23 19:04 40.13830 32.64974 15888 ft 340 kts 302°
2026-04-23 19:04 40.15242 32.62493 16014 ft 341 kts 302°
2026-04-23 19:04 40.16655 32.60011 16033 ft 341 kts 302°
2026-04-23 19:05 40.18072 32.57520 16032 ft 341 kts 302°
2026-04-23 19:05 40.19486 32.55030 16036 ft 341 kts 302°
2026-04-23 19:05 40.20972 32.52654 16037 ft 345 kts 309°
2026-04-23 19:05 40.22735 32.50459 16037 ft 346 kts 311°
2026-04-23 19:06 40.24459 32.48342 16039 ft 346 kts 311°
2026-04-23 19:06 40.26224 32.46176 16038 ft 346 kts 311°
2026-04-23 19:06 40.27985 32.44010 16222 ft 351 kts 312°
2026-04-23 19:06 40.29765 32.41814 16968 ft 351 kts 311°
2026-04-23 19:07 40.31545 32.39613 17709 ft 354 kts 311°
2026-04-23 19:07 40.33341 32.37386 18399 ft 357 kts 310°
2026-04-23 19:07 40.35153 32.35137 19032 ft 360 kts 310°
2026-04-23 19:07 40.36975 32.32875 19704 ft 362 kts 310°
2026-04-23 19:08 40.38810 32.30601 20394 ft 364 kts 310°
2026-04-23 19:08 40.40654 32.28316 21084 ft 366 kts 310°
2026-04-23 19:08 40.42518 32.26005 21782 ft 369 kts 310°
2026-04-23 19:08 40.44416 32.23710 22378 ft 375 kts 314°
2026-04-23 19:09 40.46614 32.21789 22995 ft 386 kts 326°
2026-04-23 19:09 40.49151 32.20451 23589 ft 399 kts 337°
2026-04-23 19:09 40.51935 32.19825 24076 ft 413 kts 349°
2026-04-23 19:09 40.54835 32.19733 24554 ft 419 kts 352°
2026-04-23 19:10 40.57755 32.19668 25026 ft 421 kts 352°
2026-04-23 19:10 40.60694 32.19599 25486 ft 424 kts 351°
2026-04-23 19:10 40.63654 32.19505 25953 ft 425 kts 348°
2026-04-23 19:10 40.66554 32.18906 26398 ft 417 kts 337°
2026-04-23 19:11 40.69262 32.17644 26862 ft 411 kts 329°
2026-04-23 19:11 40.71734 32.15795 27324 ft 407 kts 319°
2026-04-23 19:11 40.73900 32.13440 27782 ft 402 kts 309°
2026-04-23 19:11 40.75704 32.10646 28239 ft 398 kts 300°
2026-04-23 19:12 40.76714 32.08633 28538 ft 398 kts 298°
2026-04-23 19:12 40.78744 32.04531 29152 ft 401 kts 298°
2026-04-23 19:12 40.80257 32.01480 29582 ft 403 kts 298°
2026-04-23 19:12 40.81799 31.98376 30032 ft 405 kts 299°
2026-04-23 19:13 40.83358 31.95235 30256 ft 412 kts 299°
2026-04-23 19:13 40.84935 31.92050 30504 ft 417 kts 299°
2026-04-23 19:13 40.86524 31.88831 30812 ft 419 kts 300°
2026-04-23 19:13 40.88119 31.85596 31124 ft 422 kts 300°
2026-04-23 19:14 40.89728 31.82336 31444 ft 424 kts 300°
2026-04-23 19:14 40.91339 31.79069 31868 ft 423 kts 300°
2026-04-23 19:14 40.92946 31.75803 32326 ft 422 kts 300°
2026-04-23 19:14 40.94549 31.72543 32737 ft 423 kts 301°
2026-04-23 19:15 40.96157 31.69269 33091 ft 425 kts 301°
2026-04-23 19:15 40.97764 31.65994 33523 ft 425 kts 301°
2026-04-23 19:15 40.99372 31.62714 33950 ft 425 kts 301°
2026-04-23 19:15 41.00978 31.59432 34347 ft 424 kts 301°
2026-04-23 19:16 41.02578 31.56152 34723 ft 424 kts 301°
2026-04-23 19:16 41.04178 31.52870 35088 ft 424 kts 301°
2026-04-23 19:16 41.05775 31.49586 35441 ft 424 kts 301°
2026-04-23 19:17 41.08985 31.42991 36058 ft 426 kts 301°
2026-04-23 19:17 41.10594 31.39685 36401 ft 426 kts 301°
2026-04-23 19:17 41.12200 31.36384 36735 ft 426 kts 301°
2026-04-23 19:17 41.13809 31.33072 37069 ft 426 kts 301°
2026-04-23 19:18 41.15410 31.29771 37388 ft 426 kts 301°
2026-04-23 19:18 41.17010 31.26466 37711 ft 426 kts 301°
2026-04-23 19:18 41.18611 31.23152 37974 ft 427 kts 301°
2026-04-23 19:18 41.20208 31.19842 38025 ft 425 kts 301°
2026-04-23 19:19 41.24990 31.09923 38018 ft 424 kts 301°
2026-04-23 19:20 41.29755 31.00005 38017 ft 425 kts 301°
2026-04-23 19:20 41.32933 30.93369 38013 ft 425 kts 301°
2026-04-23 19:21 41.37672 30.83439 38016 ft 426 kts 301°
2026-04-23 19:22 41.40850 30.76775 38016 ft 426 kts 301°
2026-04-23 19:22 41.45624 30.66763 38012 ft 427 kts 301°
2026-04-23 19:23 41.49763 30.58158 38024 ft 427 kts 301°
2026-04-23 19:24 41.68945 30.17884 37997 ft 429 kts 302°
2026-04-23 19:24 41.88065 29.77133 38001 ft 431 kts 302°
2026-04-23 19:25 42.13385 29.22327 37976 ft 431 kts 303°
2026-04-23 19:26 42.33234 28.82112 37976 ft 431 kts 306°
2026-04-23 19:27 42.66586 28.14631 37948 ft 430 kts 306°
2026-04-23 19:28 42.92977 27.60163 37968 ft 430 kts 306°
2026-04-23 19:29 43.12386 27.19458 37944 ft 427 kts 306°
2026-04-23 19:30 43.31689 26.78414 37921 ft 427 kts 305°
2026-04-23 19:31 43.50804 26.37192 37927 ft 425 kts 305°
2026-04-23 19:31 43.63449 26.09588 37916 ft 427 kts 305°
2026-04-23 19:32 43.76083 25.81734 37931 ft 428 kts 304°
2026-04-23 19:32 43.88681 25.53736 37933 ft 428 kts 304°
2026-04-23 19:33 44.02175 25.26742 37953 ft 423 kts 316°
2026-04-23 19:33 44.26003 24.90556 37921 ft 421 kts 315°
2026-04-23 19:34 44.41782 24.66340 37913 ft 422 kts 315°
2026-04-23 19:35 44.65430 24.29703 37952 ft 422 kts 315°
2026-04-23 19:35 44.81123 24.05083 37965 ft 422 kts 314°
2026-04-23 19:36 44.96728 23.80385 37952 ft 422 kts 314°
2026-04-23 19:36 45.12362 23.55454 37965 ft 424 kts 314°
2026-04-23 19:37 45.27885 23.30466 37982 ft 426 kts 314°
2026-04-23 19:37 45.43521 23.05061 38057 ft 425 kts 314°
2026-04-23 19:38 45.58842 22.79967 37987 ft 420 kts 314°
2026-04-23 19:38 45.74178 22.54576 37983 ft 422 kts 314°
2026-04-23 19:39 45.89540 22.28941 38001 ft 425 kts 314°
2026-04-23 19:39 46.04843 22.03149 37967 ft 423 kts 314°
2026-04-23 19:40 46.20056 21.77259 37967 ft 424 kts 314°
2026-04-23 19:40 46.35167 21.51335 37978 ft 424 kts 314°
2026-04-23 19:41 46.50328 21.25091 37963 ft 423 kts 316°
2026-04-23 19:41 46.64073 21.04719 37951 ft 421 kts 319°
2026-04-23 19:42 46.82948 20.76071 37960 ft 420 kts 319°
2026-04-23 19:42 46.99095 20.51351 37969 ft 419 kts 319°
2026-04-23 19:43 47.15174 20.26500 38002 ft 420 kts 319°
2026-04-23 19:43 47.31245 20.01462 38002 ft 421 kts 319°
2026-04-23 19:44 47.44536 19.80553 37988 ft 420 kts 319°
2026-04-23 19:44 47.60480 19.55232 37979 ft 420 kts 319°
2026-04-23 19:45 47.78962 19.25615 37985 ft 420 kts 319°
2026-04-23 19:45 47.92232 19.04119 38023 ft 421 kts 319°
2026-04-23 19:46 48.07951 18.78454 38021 ft 421 kts 318°
2026-04-23 19:46 48.23752 18.52400 38037 ft 423 kts 318°
2026-04-23 19:47 48.39428 18.26252 38051 ft 419 kts 319°
2026-04-23 19:47 48.54994 18.00079 38039 ft 420 kts 319°
2026-04-23 19:48 48.70512 17.73720 38085 ft 419 kts 319°
2026-04-23 19:48 48.86149 17.47495 38072 ft 416 kts 323°
2026-04-23 19:49 49.02833 17.22943 38098 ft 417 kts 322°
2026-04-23 19:49 49.19091 16.97556 38069 ft 418 kts 321°
2026-04-23 19:50 49.35229 16.72179 38121 ft 419 kts 321°
2026-04-23 19:50 49.51443 16.46380 38142 ft 420 kts 321°
2026-04-23 19:51 49.67617 16.20423 38120 ft 419 kts 321°
2026-04-23 19:51 49.83718 15.94274 38136 ft 419 kts 320°
2026-04-23 19:52 49.99756 15.67981 38133 ft 419 kts 320°
2026-04-23 19:52 50.15708 15.41547 38168 ft 423 kts 320°
2026-04-23 19:53 50.31752 15.14670 38155 ft 423 kts 319°
2026-04-23 19:53 50.47746 14.87654 38165 ft 420 kts 321°
2026-04-23 19:54 50.60554 14.73098 37267 ft 422 kts 330°
2026-04-23 19:54 50.73393 14.58732 38133 ft 412 kts 330°
2026-04-23 19:54 50.82698 14.48275 38230 ft 398 kts 329°
2026-04-23 19:55 50.91851 14.37956 38155 ft 411 kts 329°
2026-04-23 19:55 51.04065 14.21412 38170 ft 413 kts 324°
2026-04-23 19:56 51.12770 14.09422 38190 ft 414 kts 323°
2026-04-23 19:56 51.21454 13.97317 38196 ft 414 kts 323°
2026-04-23 19:57 51.30111 13.85258 38190 ft 413 kts 323°
2026-04-23 19:57 51.40720 13.70340 38189 ft 413 kts 323°
2026-04-23 19:58 51.57936 13.45971 38173 ft 412 kts 322°
2026-04-23 19:58 51.74985 13.21577 38178 ft 413 kts 322°
2026-04-23 19:59 51.92189 12.96683 38180 ft 415 kts 322°
2026-04-23 19:59 52.09383 12.71540 38187 ft 417 kts 321°
2026-04-23 20:00 52.26627 12.46057 38207 ft 417 kts 321°
2026-04-23 20:00 52.39033 12.27556 38191 ft 419 kts 320°
2026-04-23 20:01 52.47627 12.14630 38209 ft 419 kts 320°
2026-04-23 20:01 52.53883 12.05171 38186 ft 419 kts 320°
2026-04-23 20:02 52.58183 11.98668 38184 ft 420 kts 319°
2026-04-23 20:02 52.62492 11.92136 38185 ft 421 kts 319°
2026-04-23 20:03 52.67046 11.86116 38196 ft 420 kts 324°
2026-04-23 20:03 52.71679 11.80258 38202 ft 419 kts 324°
2026-04-23 20:04 52.76271 11.74430 38199 ft 419 kts 324°
2026-04-23 20:04 52.80895 11.68543 38202 ft 420 kts 324°
2026-04-23 20:05 52.85526 11.62627 38181 ft 420 kts 323°
2026-04-23 20:05 52.90158 11.56694 38187 ft 422 kts 323°
2026-04-23 20:06 52.94803 11.50740 38192 ft 422 kts 323°
2026-04-23 20:06 52.99453 11.44777 38194 ft 423 kts 323°
2026-04-23 20:07 53.04096 11.38794 38199 ft 423 kts 323°
2026-04-23 20:07 53.08747 11.32791 38199 ft 423 kts 323°
2026-04-23 20:08 53.13425 11.26825 38185 ft 423 kts 325°
2026-04-23 20:08 53.18212 11.21242 37983 ft 422 kts 327°
2026-04-23 20:08 53.20647 11.18508 37142 ft 427 kts 327°
2026-04-23 20:09 53.23153 11.15696 36076 ft 436 kts 327°
2026-04-23 20:09 53.25674 11.12836 35190 ft 441 kts 327°
2026-04-23 20:09 53.28215 11.09920 34327 ft 443 kts 326°
2026-04-23 20:09 53.30753 11.06975 33315 ft 445 kts 326°
2026-04-23 20:10 53.32435 11.05009 32529 ft 446 kts 326°
2026-04-23 20:10 53.35847 11.01007 31050 ft 447 kts 326°
2026-04-23 20:10 53.38394 10.98016 30007 ft 446 kts 326°
2026-04-23 20:10 53.40921 10.95050 29021 ft 441 kts 326°
2026-04-23 20:11 53.43411 10.92131 28034 ft 433 kts 326°
2026-04-23 20:11 53.45858 10.89262 27064 ft 426 kts 326°
2026-04-23 20:11 53.48272 10.86434 26060 ft 420 kts 326°
2026-04-23 20:11 53.50655 10.83644 25134 ft 415 kts 326°
2026-04-23 20:12 53.53002 10.80893 24287 ft 407 kts 326°
2026-04-23 20:12 53.55309 10.78184 23366 ft 401 kts 326°
2026-04-23 20:12 53.57573 10.75520 22359 ft 395 kts 326°
2026-04-23 20:12 53.59808 10.72882 21394 ft 389 kts 325°
2026-04-23 20:13 53.61737 10.69740 20513 ft 387 kts 305°
2026-04-23 20:13 53.62738 10.65574 19690 ft 387 kts 282°
2026-04-23 20:13 53.62622 10.61053 18952 ft 389 kts 258°
2026-04-23 20:13 53.61684 10.56896 18766 ft 371 kts 247°
2026-04-23 20:14 53.60463 10.53208 18640 ft 351 kts 242°
2026-04-23 20:14 53.59181 10.49795 18244 ft 341 kts 240°
2026-04-23 20:14 53.58073 10.46402 18056 ft 319 kts 256°
2026-04-23 20:14 53.57928 10.42880 17922 ft 292 kts 286°
2026-04-23 20:15 53.58811 10.39959 17623 ft 277 kts 315°
2026-04-23 20:15 53.60236 10.37903 17195 ft 272 kts 323°
2026-04-23 20:15 53.61707 10.35819 16543 ft 278 kts 316°
2026-04-23 20:15 53.62710 10.32983 15645 ft 298 kts 290°
2026-04-23 20:16 53.62914 10.29422 14735 ft 319 kts 266°
2026-04-23 20:16 53.62180 10.25728 13760 ft 340 kts 243°
2026-04-23 20:16 53.60586 10.22714 12900 ft 352 kts 219°
2026-04-23 20:16 53.58414 10.20910 12209 ft 356 kts 197°
2026-04-23 20:17 53.55960 10.20565 11546 ft 357 kts 174°
2026-04-23 20:17 53.53544 10.21451 10891 ft 354 kts 165°
2026-04-23 20:17 53.51173 10.22523 10302 ft 351 kts 164°
2026-04-23 20:17 53.48882 10.23578 10181 ft 332 kts 164°
2026-04-23 20:18 53.46709 10.24625 9975 ft 319 kts 160°
2026-04-23 20:18 53.44853 10.26505 9590 ft 310 kts 133°
2026-04-23 20:18 53.43666 10.29426 9192 ft 300 kts 107°
2026-04-23 20:18 53.43359 10.32783 8797 ft 287 kts 79°
2026-04-23 20:19 53.43955 10.35866 8419 ft 273 kts 52°
2026-04-23 20:19 53.45270 10.37994 8034 ft 260 kts 24°
2026-04-23 20:19 53.46969 10.38737 7655 ft 251 kts 359°
2026-04-23 20:19 53.48711 10.38648 7267 ft 250 kts 355°
2026-04-23 20:20 53.50444 10.38472 6913 ft 248 kts 354°
2026-04-23 20:20 53.52161 10.38297 6642 ft 244 kts 355°
2026-04-23 20:20 53.53820 10.38182 6503 ft 233 kts 356°
2026-04-23 20:20 53.55411 10.38100 6375 ft 224 kts 355°
2026-04-23 20:21 53.56942 10.38026 6247 ft 217 kts 356°
2026-04-23 20:21 53.58440 10.37948 6117 ft 214 kts 355°
2026-04-23 20:21 53.59921 10.37870 5987 ft 213 kts 355°
2026-04-23 20:21 53.61401 10.37791 5953 ft 212 kts 355°
2026-04-23 20:22 53.62876 10.37712 5949 ft 212 kts 355°
2026-04-23 20:22 53.64356 10.37630 5958 ft 213 kts 355°
2026-04-23 20:22 53.65834 10.37548 5954 ft 213 kts 355°
2026-04-23 20:22 53.67317 10.37470 5948 ft 213 kts 356°
2026-04-23 20:23 53.68803 10.37660 5945 ft 216 kts
2026-04-23 20:23 53.70243 10.38308 5951 ft 218 kts 15°
2026-04-23 20:23 53.71622 10.39413 5952 ft 221 kts 25°
2026-04-23 20:23 53.72876 10.40964 5948 ft 226 kts 36°
2026-04-23 20:24 53.73960 10.42929 5938 ft 230 kts 44°
2026-04-23 20:24 53.74983 10.45011 5937 ft 231 kts 44°
2026-04-23 20:24 53.76007 10.47097 5943 ft 231 kts 44°
2026-04-23 20:24 53.77029 10.49181 5937 ft 230 kts 44°
2026-04-23 20:25 53.78052 10.51263 5939 ft 230 kts 44°
2026-04-23 20:25 53.79074 10.53342 5935 ft 231 kts 43°
2026-04-23 20:25 53.80100 10.55430 5931 ft 231 kts 44°
2026-04-23 20:25 53.81126 10.57524 5930 ft 231 kts 43°
2026-04-23 20:26 53.82269 10.59358 5930 ft 223 kts 26°
2026-04-23 20:26 53.83674 10.60311 5930 ft 215 kts
2026-04-23 20:26 53.85150 10.60335 5930 ft 212 kts 348°
2026-04-23 20:26 53.86524 10.59470 5930 ft 212 kts 329°
2026-04-23 20:27 53.87692 10.57927 5931 ft 213 kts 322°
2026-04-23 20:27 53.88705 10.56095 5932 ft 217 kts 303°
2026-04-23 20:27 53.89107 10.53592 5933 ft 228 kts 276°
2026-04-23 20:27 53.88681 10.50957 5923 ft 243 kts 245°
2026-04-23 20:28 53.87624 10.48666 5939 ft 248 kts 236°
2026-04-23 20:28 53.86516 10.46431 5932 ft 247 kts 236°
2026-04-23 20:28 53.85406 10.44200 5943 ft 247 kts 236°
2026-04-23 20:28 53.84302 10.41977 5941 ft 247 kts 237°
2026-04-23 20:29 53.83212 10.39773 5930 ft 247 kts 237°
2026-04-23 20:29 53.82110 10.37540 5495 ft 249 kts 237°
2026-04-23 20:29 53.80955 10.35234 4895 ft 263 kts 234°
2026-04-23 20:29 53.79753 10.32917 4604 ft 259 kts 236°
2026-04-23 20:30 53.78623 10.30632 4500 ft 247 kts 237°
2026-04-23 20:30 53.76551 10.26374 4077 ft 228 kts 238°
2026-04-23 20:30 53.75553 10.24326 3773 ft 224 kts 238°
2026-04-23 20:31 53.74571 10.22317 3478 ft 219 kts 238°
2026-04-23 20:31 53.73618 10.20371 3181 ft 209 kts 238°
2026-04-23 20:31 53.73020 10.19153 2997 ft 198 kts 239°
2026-04-23 20:31 53.72161 10.17399 2745 ft 189 kts 239°
2026-04-23 20:32 53.71354 10.15754 2508 ft 176 kts 240°
2026-04-23 20:32 53.70360 10.13725 2193 ft 163 kts 241°
2026-04-23 20:32 53.69657 10.12292 1961 ft 154 kts 243°
2026-04-23 20:32 53.68997 10.10949 1759 ft 144 kts 241°
2026-04-23 20:33 53.68574 10.10087 1628 ft 138 kts 242°
2026-04-23 20:33 53.67972 10.08859 1438 ft 135 kts 241°
2026-04-23 20:33 53.67380 10.07651 1261 ft 132 kts 240°
2026-04-23 20:33 53.66798 10.06468 1083 ft 130 kts 240°
2026-04-23 20:34 53.66228 10.05307 899 ft 128 kts 239°
2026-04-23 20:34 53.65659 10.04150 728 ft 127 kts 237°
2026-04-23 20:34 53.65100 10.03016 573 ft 124 kts 236°
2026-04-23 20:34 53.64538 10.01898 335 ft 130 kts 237°
2026-04-23 20:35 53.63883 10.00549 269 ft 155 kts 236°
2026-04-23 20:35 53.63204 9.99170 64 ft 150 kts 236°
2026-04-23 20:35 53.62597 9.97931 42 ft 109 kts 229°
2026-04-23 20:35 53.62273 9.97280 40 ft 57 kts 231°
2026-04-23 20:36 53.62036 9.96798 42 ft 41 kts 230°
2026-04-23 20:36 53.61891 9.96501 45 ft 32 kts 230°
2026-04-23 20:36 53.61702 9.96474 47 ft 27 kts 121°
2026-04-23 20:36 53.61782 9.96778 47 ft 35 kts 52°
2026-04-23 20:37 53.61966 9.97150 47 ft 47 kts 50°
2026-04-23 20:37 53.62199 9.97619 47 ft 44 kts 50°
2026-04-23 20:37 53.62331 9.97888 47 ft 34 kts 50°
2026-04-23 20:37 53.62462 9.98204 47 ft 31 kts 77°
2026-04-23 20:38 53.62512 9.98641 45 ft 44 kts 79°
2026-04-23 20:38 53.62553 9.99003 47 ft 26 kts 84°
2026-04-23 20:38 53.62593 9.99359 47 ft 36 kts 79°
2026-04-23 20:38 53.62628 9.99661 47 ft 24 kts 78°
2026-04-23 20:39 53.62745 9.99906 46 ft 21 kts 29°
2026-04-23 20:39 53.62781 9.99939 47 ft 11 kts 28°
2026-04-23 20:39 53.62873 10.00030 49 ft 20 kts 30°
2026-04-23 20:39 53.63014 10.00128 46 ft 22 kts 32°
2026-04-23 20:40 53.63166 10.00187 49 ft 26 kts 358°
2026-04-23 20:40 53.63299 10.00171 49 ft 13 kts 355°
2026-04-23 20:40 53.63373 10.00182 49 ft 7 kts 61°
2026-04-23 20:40 53.63372 10.00195 46 ft 2 kts 94°
2026-04-23 20:41 53.63371 10.00205 47 ft 0 kts 101°
2026-04-23 20:41 53.63370 10.00216 49 ft 4 kts 103°
2026-04-23 20:41 53.63370 10.00298 49 ft 8 kts 86°
2026-04-23 20:42 53.63371 10.00325 47 ft 0 kts 86°
2026-04-23 20:42 53.63372 10.00338 46 ft 0 kts 85°
2026-04-23 20:42 53.63373 10.00352 47 ft 0 kts 85°